Location: Auckland
(36.8670°S, 174.7670°E)
Time: 09:57:11
(UTC+13:00)

COSMOS 2428 - Pass Details

Date: 24 January 2019
Orbit: 845 x 856 km, 71.0° (Epoch: 17 February)

Event Time Altitude Azimuth Distance (km) Brightness Sun altitude
Exits shadow 23:03:03 43° 89° (E) 1,199 3.2 -23.7°
Drops below altitude 10° 23:07:59 10° 144° (SE) 2,512 5.3 -24.3°
Sets 23:10:33 0° 150° (SSE) 3,456 6.2 -24.6°
